This is the latest recevied weather packets stored in our database for station/object TA2NC-13. If no packets are shown the sender has not sent any weather packets the latest 10 day(s).
| Time | Temp. | Humidity | Pressure | Rain* | Wind** | Luminosity | Snow |
|---|---|---|---|---|---|---|---|
| 1777400401 | 12.78° C | 57% | 1014 hPa | 0 mm | - | - | - |
| 1777399801 | 12.78° C | 56% | 1014 hPa | 0 mm | - | - | - |
| 1777399201 | 13.33° C | 55% | 1014 hPa | 0 mm | - | - | - |
| 1777398601 | 13.33° C | 54% | 1014 hPa | 0 mm | - | - | - |
| 1777398001 | 13.89° C | 53% | 1014 hPa | 0 mm | - | - | - |
| 1777397400 | 13.89° C | 52% | 1013 hPa | 0 mm | - | - | - |
| 1777396801 | 13.89° C | 52% | 1013 hPa | 0 mm | - | - | - |
| 1777396201 | 14.44° C | 55% | 1013 hPa | 0 mm | - | - | - |
| 1777395601 | 15° C | 49% | 1013 hPa | 0 mm | - | - | - |
| 1777395001 | 15.56° C | 47% | 1016.5 hPa | 0 mm | - | - | - |
| 1777394401 | 16.11° C | 45% | 0 hPa | 0 mm | - | - | - |
| 1777393801 | 16.11° C | 44% | 0 hPa | 0 mm | - | - | - |
| 1777393201 | 17.22° C | 42% | 0 hPa | 0 mm | - | - | - |
| 1777392601 | 17.22° C | 42% | 0 hPa | 0 mm | - | - | - |
| 1777392001 | 17.78° C | 40% | 0 hPa | 0 mm | - | - | - |
| 1777391401 | 18.33° C | 38% | 0 hPa | 0 mm | - | - | - |
| 1777390800 | 18.33° C | 37% | 0 hPa | 0 mm | - | - | - |
| 1777390201 | 18.89° C | 37% | 0 hPa | 0 mm | - | - | - |
| 1777389601 | 18.89° C | 35% | 0 hPa | 0 mm | - | - | - |
| 1777389001 | 18.89° C | 37% | 0 hPa | 0 mm | - | - | - |
| 1777388401 | 18.89° C | 37% | 0 hPa | 0 mm | - | - | - |
| 1777387801 | 19.44° C | 38% | 0 hPa | 0 mm | - | - | - |
| 1777387201 | 19.44° C | 39% | 0 hPa | 0 mm | - | - | - |
| 1777386601 | 19.44° C | 37% | 0 hPa | 0 mm | - | - | - |
| 1777386001 | 20° C | 38% | 0 hPa | 0 mm | - | - | - |
* Rain latest hour (hover to see other rain measurements)
** Current wind speed in m/s (hover to see current wind gust speed)